Home > Weather > Churu > Past weeks

Flag for India Past Weather in Churu, Rajasthan, India — Yesterday and Last 2 Weeks

Now
100 °F

Thunderstorms. Passing clouds.


Feels Like: 102 °F
Forecast: 84 / 107 °F
Wind: 15 mph from West

Location: Jaipur / Sanganer

Current Time: May 25, 2016 at 8:41:57 PM

Latest Report: May 25, 2016 at 8:00 PM


Visibility: 1 mi

Pressure: 29.47 "Hg

Humidity: 29%

Dew Point: 63 °F

Location of ChuruLocation

Past Weather in Churu — Graph

°F

Churu Temperature Yesterday

Maximum temperature yesterday: 102 °F (at 3:00 PM)
Minimum temperature yesterday: 77 °F (at 12:00 AM)
Average temperature yesterday: 91 °F

High & Low Weather Summary for the Past Weeks

 TemperatureHumidityPressure
High115 °F (May 19, 2:30 PM)74% (May 24, 1:00 AM)29.86 "Hg (May 24, 1:00 AM)
Low77 °F (May 23, 11:00 PM)5% (May 19, 4:30 PM)29.42 "Hg (May 20, 3:30 PM)
Average97 °F28%29.60 "Hg
* Reported May 10 6:30 PM — May 25 7:00 PM, Churu, Weather by CustomWeather, © 2016

Note: Actual official high and low records may vary slightly from our data, if they occured in-between our weather recording intervals... More about our weather records

Advertising

Churu Weather History for the Previous 24 Hours

Scroll right to see more
 ConditionsComfort  
Time TempWeatherWind HumidityBarometerVisibility
7:00 PM
Wed, May 25
100 °FLow level haze.17 mph29%29.47 "Hg1 mi
6:30 PM100 °FLow level haze.17 mph27%29.47 "Hg1 mi
6:00 PM100 °FLow level haze.22 mph27%29.47 "Hg1 mi
5:30 PM100 °FScattered clouds.21 mph27%29.47 "Hg1 mi
4:30 PM104 °FScattered clouds.18 mph23%29.47 "Hg1 mi
3:30 PM102 °FScattered clouds.18 mph24%29.50 "Hg1 mi
3:00 PM102 °FScattered clouds.14 mph26%29.50 "Hg2 mi
2:30 PM102 °FLow level haze.18 mph24%29.53 "Hg2 mi
1:00 PM100 °FLow level haze.17 mph25%29.56 "Hg1 mi
12:30 PM100 °FLow level haze.18 mph25%29.56 "Hg1 mi
11:30 AM97 °FLow level haze.18 mph32%29.59 "Hg1 mi
11:00 AM95 °FLow level haze.16 mph36%29.59 "Hg1 mi
10:30 AM95 °FLow level haze.16 mph34%29.62 "Hg1 mi
9:30 AM91 °FLow level haze.17 mph38%29.62 "Hg1 mi
9:00 AM91 °FLow level haze.14 mph38%29.62 "Hg1 mi
8:00 AM90 °FLow level haze.17 mph43%29.59 "Hg1 mi
7:00 AM90 °FLow level haze.18 mph43%29.59 "Hg1 mi
6:00 AM90 °FLow level haze.23 mph43%29.56 "Hg1 mi
5:00 AM91 °FPassing clouds.18 mph41%29.56 "Hg2 mi
3:00 AM88 °FPassing clouds.6 mph43%29.56 "Hg2 mi
2:30 AM88 °FPassing clouds.8 mph46%29.59 "Hg2 mi
2:00 AM88 °FPassing clouds.9 mph46%29.59 "Hg2 mi
1:00 AM95 °FPassing clouds.6 mph34%29.59 "Hg2 mi
12:00 AM95 °FPassing clouds.6 mph32%29.59 "Hg2 mi
11:30 PM
Tue, May 24
97 °FPassing clouds.10 mph28%29.59 "Hg2 mi
11:00 PM97 °FPassing clouds.12 mph27%29.59 "Hg2 mi
10:00 PM99 °FHaze.13 mph25%29.56 "Hg2 mi
9:00 PM99 °FHaze.13 mph25%29.56 "Hg2 mi
8:30 PM100 °FHaze.13 mph22%29.56 "Hg2 mi
8:00 PM100 °FHaze.14 mph22%29.53 "Hg2 mi
Weather by CustomWeather, © 2016

See weather overviewHow to use our weather pages